Location: Bosmont
(49.7318°N, 3.8587°E)
Time: 00:13:17
(UTC+00:00)

Cosmos 1626 Rocket - Pass Details

Date: 08 February 2023
Orbit: 603 x 629 km, 82.5° (Epoch: 21 March)

Event Time Altitude Azimuth Distance (km) Brightness Sun altitude
Rises 19:00:59 0° 200° (SSW) 2,847 7.2 -21.3°
Reaches altitude 10° 19:03:13 10° 205° (SSW) 1,950 6.4 -21.7°
Maximum altitude 19:07:27 55° 283° (WNW) 738 4.2 -22.4°
Drops below altitude 10° 19:11:45 10° 2° (N) 1,979 6.2 -23.1°
Sets 19:14:02 0° 7° (N) 2,893 7.0 -23.4°
